This is the latest recevied weather packets stored in our database for station/object NR0A-4. If no packets are shown the sender has not sent any weather packets the latest 10 day(s).
| Time | Temp. | Humidity | Pressure | Rain* | Wind** | Luminosity | Snow |
|---|---|---|---|---|---|---|---|
| 1788292804 | 31.67° C | 63% | 1012.7 hPa | 0 mm | - | 698 W/m² | - |
| 1788292504 | 31.67° C | 64% | 1012.7 hPa | 0 mm | - | 703 W/m² | - |
| 1788292204 | 31.11° C | 64% | 1012.7 hPa | 0 mm | - | 724 W/m² | - |
| 1788291904 | 31.11° C | 63% | 1012.7 hPa | 0 mm | - | 731 W/m² | - |
| 1788291604 | 31.11° C | 65% | 1012.8 hPa | 0 mm | - | 763 W/m² | - |
| 1788291305 | 31.11° C | 64% | 1012.8 hPa | 0 mm | - | 656 W/m² | - |
| 1788291005 | 31.11° C | 65% | 1012.8 hPa | 0 mm | - | 745 W/m² | - |
| 1788290704 | 31.67° C | 64% | 1012.9 hPa | 0 mm | - | 701 W/m² | - |
| 1788290405 | 31.67° C | 66% | 1013 hPa | 0 mm | - | 621 W/m² | - |
| 1788290104 | 31.11° C | 65% | 1013.1 hPa | 0 mm | - | 682 W/m² | - |
| 1788289506 | 31.11° C | 67% | 1013 hPa | 0 mm | - | 726 W/m² | - |
| 1788289205 | 31.11° C | 67% | 1013 hPa | 0 mm | - | 735 W/m² | - |
| 1788288905 | 31.11° C | 67% | 1013 hPa | 0 mm | - | 840 W/m² | - |
| 1788288605 | 31.11° C | 67% | 1013 hPa | 0 mm | - | 214 W/m² | - |
| 1788288305 | 31.11° C | 67% | 1013.2 hPa | 0 mm | - | 192 W/m² | - |
| 1788288004 | 31.11° C | 65% | 1013.1 hPa | 0 mm | - | 788 W/m² | - |
| 1788287704 | 31.11° C | 66% | 1013 hPa | 0 mm | - | 758 W/m² | - |
| 1788287405 | 30.56° C | 68% | 1013.2 hPa | 0 mm | - | 780 W/m² | - |
| 1788287105 | 30.56° C | 67% | 1013.1 hPa | 0 mm | - | 729 W/m² | - |
| 1788286805 | 30.56° C | 68% | 1013.2 hPa | 0 mm | - | 636 W/m² | - |
| 1788286505 | 30.56° C | 65% | 1013.3 hPa | 0 mm | - | 510 W/m² | - |
| 1788286204 | 30.56° C | 64% | 1013.2 hPa | 0 mm | - | 506 W/m² | - |
| 1788285905 | 30.56° C | 68% | 1013.2 hPa | 0 mm | - | 584 W/m² | - |
| 1788285605 | 30.56° C | 67% | 1013.2 hPa | 0 mm | - | 425 W/m² | - |
| 1788285304 | 30.56° C | 66% | 1013.2 hPa | 0 mm | - | 450 W/m² | - |
* Rain latest hour (hover to see other rain measurements)
** Current wind speed in m/s (hover to see current wind gust speed)